Gesamt
Landers Ranch Airport (Colorado City, TX) 1TS8 Wetter
There is no TAF data available at 1TS8 or any nearby airports.
There is no METAR data available at 1TS8. Showing METAR data for KSWW (19 mi NO).
Aktueller METAR-Verlauf SWW (keine Daten für 1TS8)
| Date | Time (CDT) | Flight Rules | Wind Dir. | Speed | Type | Height AGL (ft) | Visibility | Temp (°C) | Temp (°F) | Dew Point (°C) | Dew Point (°F) | Rel. Humid. | Pressure | Density Altitude | Remarks |
|---|---|---|---|---|---|---|---|---|---|---|---|---|---|---|---|
| 31-Aug | 09:55 | VFR | 210° | 15 kt | 10 miles | 30° | 86° | 19° | 66° | 52% | 30.09 in Hg | 4.484 ft | Wind gusting to 19 KT | ||
| 31-Aug | 09:35 | VFR | 210° | 15 kt | 10 miles | 29° | 84° | 19° | 66° | 55% | 30.10 in Hg | 4.354 ft | Wind gusting to 19 KT | ||
| 31-Aug | 09:15 | VFR | 200° | 13 kt | 10 miles | 28° | 82° | 19° | 66° | 57% | 30.09 in Hg | 4.244 ft | Wind gusting to 18 KT | ||
| 31-Aug | 08:55 | VFR | 170° | 13 kt | 10 miles | 27° | 80° | 19° | 66° | 59% | 30.08 in Hg | 4.134 ft | |||
| 31-Aug | 08:35 | VFR | 170° | 10 kt | 10 miles | 27° | 80° | 18° | 64° | 60% | 30.08 in Hg | 4.134 ft | |||
| 31-Aug | 08:15 | VFR | 190° | 11 kt | 10 miles | 26° | 78° | 18° | 64° | 63% | 30.07 in Hg | 4.024 ft | |||
| 31-Aug | 07:55 | VFR | 190° | 10 kt | 10 miles | 25° | 77° | 18° | 64° | 64% | 30.06 in Hg | 3.914 ft | |||
| 31-Aug | 07:35 | VFR | 190° | 10 kt | 10 miles | 25° | 77° | 17° | 62° | 65% | 30.05 in Hg | 3.924 ft | |||
| 31-Aug | 07:15 | VFR | 190° | 10 kt | 10 miles | 24° | 75° | 17° | 62° | 64% | 30.05 in Hg | 3.804 ft | |||
| 31-Aug | 06:55 | VFR | 190° | 9 kt | 10 miles | 25° | 77° | 17° | 62° | 62% | 30.05 in Hg | 3.924 ft | |||
| 31-Aug | 06:35 | VFR | 190° | 9 kt | 10 miles | 25° | 77° | 17° | 62° | 60% | 30.05 in Hg | 3.924 ft | |||
| 31-Aug | 06:15 | VFR | 180° | 10 kt | 10 miles | 25° | 77° | 17° | 62° | 59% | 30.05 in Hg | 3.924 ft | |||
| 31-Aug | 05:55 | VFR | 180° | 12 kt | 10 miles | 25° | 77° | 16° | 60° | 57% | 30.05 in Hg | 3.924 ft | |||
| 31-Aug | 05:35 | VFR | 180° | 14 kt | 10 miles | 26° | 78° | 16° | 60° | 56% | 30.05 in Hg | 4.044 ft | |||
| 31-Aug | 05:15 | VFR | 170° | 12 kt | 10 miles | 26° | 78° | 16° | 60° | 54% | 30.04 in Hg | 4.054 ft | |||
| 31-Aug | 04:55 | VFR | 170° | 11 kt | 10 miles | 26° | 78° | 16° | 60° | 52% | 30.04 in Hg | 4.054 ft | |||
| 31-Aug | 04:35 | VFR | 170° | 14 kt | 10 miles | 27° | 80° | 16° | 60° | 51% | 30.04 in Hg | 4.174 ft | |||
| 31-Aug | 04:15 | VFR | 170° | 13 kt | 10 miles | 27° | 80° | 15° | 59° | 50% | 30.04 in Hg | 4.174 ft | |||
| 31-Aug | 03:55 | VFR | 170° | 11 kt | 10 miles | 27° | 80° | 15° | 59° | 49% | 30.03 in Hg | 4.184 ft | |||
| 31-Aug | 03:35 | VFR | 180° | 10 kt | 10 miles | 27° | 80° | 15° | 59° | 48% | 30.03 in Hg | 4.184 ft | |||
| 31-Aug | 03:15 | VFR | 180° | 10 kt | 10 miles | 27° | 80° | 15° | 59° | 46% | 30.03 in Hg | 4.184 ft | |||
| 31-Aug | 02:55 | VFR | 180° | 10 kt | 10 miles | 27° | 80° | 14° | 57° | 45% | 30.03 in Hg | 4.184 ft | |||
| 31-Aug | 02:35 | VFR | 180° | 10 kt | 10 miles | 28° | 82° | 14° | 57° | 44% | 30.03 in Hg | 4.304 ft | |||
| 31-Aug | 02:15 | VFR | 170° | 10 kt | 10 miles | 28° | 82° | 14° | 57° | 43% | 30.04 in Hg | 4.294 ft | Wind gusting to 16 KT |
Anmelden
| Ihr Browser wird nicht unterstützt. aktualisieren Sie Ihren Browser |
